This is the latest recevied weather packets stored in our database for station/object K3HM. If no packets are shown the sender has not sent any weather packets the latest 10 day(s).
| Time | Temp. | Humidity | Pressure | Rain* | Wind** | Luminosity | Snow |
|---|---|---|---|---|---|---|---|
| 1777733087 | 4.44° C | 76% | 1014.8 hPa | 0 mm | - | 594 W/m² | - |
| 1777732783 | 5° C | 75% | 1015 hPa | 0 mm | - | 131 W/m² | - |
| 1777732481 | 5° C | 76% | 1014.9 hPa | 0 mm | - | 124 W/m² | - |
| 1777732178 | 5.56° C | 72% | 1014.6 hPa | 0 mm | - | 223 W/m² | - |
| 1777731875 | 5.56° C | 75% | 1014.6 hPa | 0 mm | - | 715 W/m² | - |
| 1777731572 | 5° C | 76% | 1014.6 hPa | 0 mm | - | 409 W/m² | - |
| 1777731270 | 4.44° C | 79% | 1014.6 hPa | 0 mm | - | 141 W/m² | - |
| 1777730967 | 5° C | 77% | 1014.6 hPa | 0 mm | - | 208 W/m² | - |
| 1777730666 | 4.44° C | 78% | 1014.6 hPa | 0 mm | - | 158 W/m² | - |
| 1777730361 | 3.89° C | 79% | 1014.8 hPa | 0 mm | - | 225 W/m² | - |
| 1777730057 | 3.89° C | 79% | 1014.7 hPa | 0 mm | - | 146 W/m² | - |
| 1777729754 | 4.44° C | 79% | 1014.6 hPa | 0 mm | - | 190 W/m² | - |
| 1777729451 | 5° C | 79% | 1014.5 hPa | 0 mm | - | 277 W/m² | - |
| 1777729147 | 4.44° C | 77% | 1014.4 hPa | 0 mm | - | 450 W/m² | - |
| 1777728844 | 4.44° C | 79% | 1014.5 hPa | 0 mm | - | 120 W/m² | - |
| 1777728541 | 4.44° C | 80% | 1014.4 hPa | 0 mm | - | 312 W/m² | - |
| 1777728238 | 3.89° C | 81% | 1014.3 hPa | 0 mm | - | 398 W/m² | - |
| 1777727935 | 3.89° C | 81% | 1014.6 hPa | 0 mm | - | 394 W/m² | - |
| 1777727632 | 3.33° C | 83% | 1014.9 hPa | 0 mm | - | 374 W/m² | - |
| 1777727329 | 3.89° C | 83% | 1014.7 hPa | 0 mm | - | 142 W/m² | - |
| 1777727027 | 3.33° C | 84% | 1014.7 hPa | 0 mm | - | 298 W/m² | - |
| 1777726723 | 3.89° C | 85% | 1014.9 hPa | 0 mm | - | 222 W/m² | - |
| 1777726421 | 2.78° C | 86% | 1014.9 hPa | 0 mm | - | 178 W/m² | - |
| 1777726117 | 2.78° C | 86% | 1014.9 hPa | 0 mm | - | 156 W/m² | - |
| 1777725814 | 2.78° C | 88% | 1014.7 hPa | 0 mm | - | 175 W/m² | - |
* Rain latest hour (hover to see other rain measurements)
** Current wind speed in m/s (hover to see current wind gust speed)